FW3632 Weather Reports


Display with metric or nautical units.
time (UTC)temp
F
wind
direction
speed
MPH
gust
MPH
rain 1hr
in
rain 24hr
in
rain mn
in
humidity
%
barometer
mb
20200404085348 42 272 4.0 12.0 0.00 0.01 0.01 61 1016.6
20200404084848 42 288 4.0 12.0 0.00 0.01 0.01 61 1016.5
20200404084348 42 337 4.0 10.0 0.00 0.01 0.01 61 1016.5
20200404083850 42 289 4.0 8.0 0.00 0.01 0.01 61 1016.4
20200404083342 43 297 4.0 11.0 0.00 0.01 0.01 62 1016.4
20200404082842 43 318 4.0 11.0 0.00 0.01 0.01 62 1016.4
20200404082342 43 288 5.0 11.0 0.00 0.01 0.01 62 1016.4
20200404081842 43 323 5.0 11.0 0.00 0.01 0.01 62 1016.4
20200404081342 43 287 4.0 11.0 0.00 0.01 0.01 62 1016.4
20200404080842 44 280 4.0 9.0 0.00 0.01 0.01 62 1016.3
20200404080336 44 294 5.0 10.0 0.00 0.01 0.01 62 1016.3
20200404075836 44 0 5.0 11.0 0.00 0.02 0.01 62 1016.3
20200404075337 44 309 5.0 11.0 0.00 0.02 0.01 62 1016.3
20200404074836 44 273 4.0 11.0 0.00 0.02 0.01 62 1016.3
20200404074338 44 316 3.0 10.0 0.00 0.02 0.01 62 1016.3
20200404073836 44 319 4.0 9.0 0.00 0.02 0.01 62 1016.4
20200404073335 44 272 5.0 11.0 0.00 0.02 0.01 62 1016.4
20200404072830 44 327 4.0 11.0 0.00 0.02 0.01 62 1016.3
20200404072330 45 313 4.0 13.0 0.00 0.02 0.01 62 1016.3
20200404071832 45 305 5.0 13.0 0.00 0.02 0.01 62 1016.3
20200404071330 45 288 5.0 11.0 0.00 0.02 0.01 62 1016.3
20200404070830 45 349 5.0 11.0 0.00 0.02 0.01 62 1016.2
20200404070330 45 296 4.0 10.0 0.00 0.02 0.01 62 1016.2
20200404065828 45 308 4.0 10.0 0.00 0.02 0.01 63 1016.1
20200404065326 45 284 4.0 10.0 0.01 0.02 0.01 63 1016.1
20200404064826 45 308 4.0 9.0 0.01 0.02 0.01 63 1016.0
20200404064326 45 319 3.0 8.0 0.01 0.02 0.01 63 1015.9
20200404063824 45 350 4.0 10.0 0.01 0.02 0.01 63 1016.1
20200404063326 45 293 3.0 10.0 0.01 0.02 0.01 63 1016.0
20200404062820 45 282 3.0 9.0 0.01 0.02 0.01 63 1016.1
20200404062320 45 329 4.0 9.0 0.01 0.02 0.01 63 1016.1
20200404061818 45 285 5.0 12.0 0.01 0.02 0.01 63 1016.0
20200404061318 45 277 4.0 12.0 0.01 0.02 0.01 63 1016.0
20200404060818 45 306 4.0 9.0 0.01 0.02 0.01 63 1016.0
20200404060317 45 319 5.0 12.0 0.01 0.02 0.01 63 1015.9
20200404055816 45 296 5.0 12.0 0.01 0.02 0.01 63 1015.9
20200404055315 45 293 3.0 9.0 0.00 0.01 0.00 63 1016.0
20200404054816 45 293 4.0 9.0 0.00 0.01 0.00 63 1016.0
20200404054314 46 282 4.0 9.0 0.00 0.01 0.00 63 1016.0
20200404053812 46 327 5.0 10.0 0.00 0.01 0.00 63 1015.8
20200404053312 46 266 5.0 10.0 0.00 0.01 0.00 62 1015.9
20200404052806 46 294 5.0 10.0 0.00 0.01 0.00 61 1015.9
20200404052306 46 289 5.0 10.0 0.00 0.01 0.00 61 1015.9
20200404051806 46 261 6.0 12.0 0.00 0.01 0.00 61 1015.9
20200404051307 46 301 6.0 12.0 0.00 0.01 0.00 61 1015.9
20200404050806 47 276 6.0 12.0 0.00 0.01 0.00 61 1015.9
20200404050308 47 285 7.0 13.0 0.00 0.01 0.00 60 1016.0
20200404045759 47 268 7.0 13.0 0.00 0.01 0.01 60 1015.9
20200404045259 47 251 7.0 12.0 0.00 0.01 0.01 59 1016.0
20200404044800 48 277 7.0 14.0 0.00 0.01 0.01 59 1016.0
20200404044300 48 280 8.0 14.0 0.00 0.01 0.01 59 1016.0
20200404043800 49 303 6.0 12.0 0.00 0.01 0.01 58 1015.9
20200404043259 49 286 6.0 12.0 0.00 0.01 0.01 58 1015.9
20200404042754 50 296 7.0 13.0 0.00 0.01 0.01 58 1015.9
20200404042254 50 260 6.0 13.0 0.00 0.01 0.01 58 1015.8
20200404041756 51 248 6.0 11.0 0.00 0.01 0.01 58 1015.6
20200404041253 51 257 6.0 12.0 0.00 0.01 0.01 58 1015.5
20200404040753 52 266 6.0 12.0 0.00 0.01 0.01 58 1015.5
20200404040254 53 236 7.0 13.0 0.00 0.01 0.01 58 1015.6
20200404035748 53 286 7.0 14.0 0.00 0.01 0.01 57 1015.4
20200404035248 54 302 5.0 14.0 0.00 0.01 0.01 57 1015.5
20200404034748 55 284 4.0 10.0 0.00 0.01 0.01 58 1015.5
20200404034247 55 267 4.0 10.0 0.00 0.01 0.01 58 1015.5
20200404033748 55 285 4.0 10.0 0.00 0.01 0.01 58 1015.4
20200404033250 55 273 4.0 9.0 0.00 0.01 0.01 58 1015.3
20200404032744 56 271 4.0 8.0 0.00 0.01 0.01 58 1015.2
20200404032244 56 284 4.0 9.0 0.00 0.01 0.01 57 1015.2
20200404031744 57 292 5.0 9.0 0.00 0.01 0.01 57 1015.2
20200404031244 57 298 4.0 9.0 0.00 0.01 0.01 57 1015.1
20200404030743 57 289 4.0 9.0 0.00 0.01 0.01 58 1015.1
20200404030242 57 275 4.0 8.0 0.00 0.01 0.01 58 1015.0
20200404025739 57 275 4.0 8.0 0.00 0.01 0.01 58 1015.0
20200404025240 57 253 4.0 8.0 0.00 0.01 0.01 58 1015.0
20200404024740 58 269 4.0 9.0 0.00 0.01 0.01 58 1014.9
20200404024240 58 246 4.0 9.0 0.00 0.01 0.01 58 1015.0
20200404023739 58 293 3.0 8.0 0.00 0.01 0.01 58 1015.0
20200404023239 59 261 3.0 7.0 0.00 0.01 0.01 58 1014.9
20200404022740 59 288 4.0 9.0 0.00 0.01 0.01 57 1014.9
20200404022236 60 275 4.0 9.0 0.00 0.01 0.01 57 1014.9
20200404021735 60 288 5.0 12.0 0.00 0.01 0.01 56 1014.9
20200404021234 61 323 7.0 12.0 0.00 0.01 0.01 54 1014.9
20200404020734 62 288 6.0 13.0 0.00 0.01 0.01 51 1014.9
20200404020234 64 266 3.0 13.0 0.00 0.01 0.01 47 1014.7
20200404015734 64 195 2.0 5.0 0.00 0.01 0.01 45 1014.5
20200404015234 64 167 2.0 5.0 0.00 0.01 0.01 45 1014.4
20200404014732 64 155 2.0 5.0 0.00 0.01 0.01 44 1014.4
20200404014232 64 187 2.0 5.0 0.00 0.01 0.01 44 1014.5
20200404013730 64 171 1.0 4.0 0.00 0.01 0.01 44 1014.4
20200404013229 64 170 1.0 5.0 0.00 0.01 0.01 44 1014.4
20200404012729 65 150 2.0 7.0 0.00 0.01 0.01 43 1014.4
20200404012229 65 163 2.0 7.0 0.00 0.01 0.01 43 1014.4
20200404011729 65 162 2.0 6.0 0.00 0.01 0.01 43 1014.4
20200404011228 65 158 2.0 6.0 0.00 0.01 0.01 43 1014.3
20200404010728 65 166 1.0 5.0 0.00 0.01 0.01 43 1014.4
20200404010228 65 157 1.0 4.0 0.00 0.01 0.01 43 1014.4
20200404005728 65 173 1.0 4.0 0.00 0.01 0.01 43 1014.3
20200404005227 65 144 1.0 4.0 0.00 0.01 0.01 43 1014.2
20200404004727 65 156 1.0 4.0 0.00 0.01 0.01 43 1014.1
20200404004227 65 161 1.0 4.0 0.00 0.01 0.01 42 1014.1
20200404003723 65 160 1.0 4.0 0.00 0.01 0.01 42 1014.1
20200404003224 65 158 1.0 4.0 0.00 0.01 0.01 42 1014.2
20200404002724 65 154 1.0 3.0 0.00 0.01 0.01 42 1014.1
20200404002223 65 154 1.0 4.0 0.00 0.01 0.01 41 1014.1
20200404001726 65 161 1.0 4.0 0.00 0.01 0.01 41 1014.1
20200404001226 66 181 1.0 4.0 0.00 0.01 0.01 41 1014.2
20200404000722 66 160 1.0 4.0 0.00 0.01 0.01 40 1014.2
20200404000219 66 154 2.0 6.0 0.00 0.01 0.01 40 1014.2
20200403235719 66 178 2.0 6.0 0.00 0.01 0.01 40 1014.2
20200403235219 66 159 2.0 6.0 0.00 0.01 0.01 39 1014.2
20200403234719 66 182 2.0 5.0 0.00 0.01 0.01 39 1014.4
20200403234219 66 167 2.0 5.0 0.00 0.01 0.01 39 1014.5
20200403233715 66 165 1.0 6.0 0.00 0.01 0.01 39 1014.6
20200403233216 66 200 1.0 6.0 0.00 0.01 0.01 39 1014.6
20200403232715 67 189 2.0 4.0 0.00 0.01 0.01 39 1014.5
20200403232215 67 202 2.0 7.0 0.00 0.01 0.01 39 1014.6
20200403231716 67 169 3.0 7.0 0.00 0.01 0.01 39 1014.6
20200403231215 67 203 3.0 8.0 0.00 0.01 0.01 38 1014.6
20200403230711 67 182 2.0 8.0 0.00 0.01 0.01 38 1014.6
20200403230210 67 203 2.0 8.0 0.00 0.01 0.01 39 1014.6
20200403225709 67 188 2.0 8.0 0.00 0.01 0.01 39 1014.6
20200403225206 67 168 2.0 7.0 0.00 0.01 0.01 38 1014.5
20200403224705 67 178 3.0 7.0 0.00 0.01 0.01 37 1014.6
20200403224206 67 194 3.0 7.0 0.00 0.01 0.01 37 1014.7
20200403223705 67 188 3.0 9.0 0.00 0.01 0.01 37 1014.6
20200403223206 68 175 3.0 9.0 0.00 0.01 0.01 37 1014.6
20200403222705 68 167 2.0 5.0 0.00 0.01 0.01 37 1014.5
20200403222204 68 186 2.0 5.0 0.00 0.01 0.01 37 1014.5
20200403221659 68 202 2.0 7.0 0.00 0.01 0.01 37 1014.5
20200403221200 68 174 2.0 7.0 0.00 0.01 0.01 37 1014.5
20200403220657 68 177 2.0 10.0 0.00 0.01 0.01 37 1014.5
20200403220157 68 178 3.0 10.0 0.00 0.01 0.01 37 1014.5
20200403215657 68 150 3.0 7.0 0.00 0.01 0.01 36 1014.5
20200403215157 68 185 4.0 8.0 0.00 0.01 0.01 36 1014.6
20200403214659 68 186 4.0 9.0 0.00 0.01 0.01 36 1014.5
20200403214154 69 155 3.0 9.0 0.00 0.01 0.01 35 1014.5
20200403213650 69 182 2.0 7.0 0.00 0.01 0.01 35 1014.5
20200403213148 69 171 2.0 7.0 0.00 0.01 0.01 36 1014.5
20200403212648 68 177 2.0 8.0 0.00 0.01 0.01 36 1014.5
20200403212146 68 146 3.0 8.0 0.00 0.01 0.01 37 1014.5
20200403211647 68 169 3.0 9.0 0.00 0.01 0.01 36 1014.6
20200403211143 68 153 3.0 10.0 0.00 0.01 0.01 37 1014.6
20200403210643 68 194 2.0 10.0 0.00 0.01 0.01 36 1014.6
20200403210144 69 206 3.0 8.0 0.00 0.01 0.01 36 1014.6
20200403205641 69 224 3.0 8.0 0.00 0.01 0.01 35 1014.7
20200403205139 69 179 2.0 9.0 0.00 0.01 0.01 35 1014.7
20200403204639 68 174 3.0 9.0 0.00 0.01 0.01 37 1014.7
20200403204133 68 188 2.0 8.0 0.00 0.01 0.01 36 1014.7
20200403203631 68 292 2.0 8.0 0.00 0.01 0.01 37 1014.8
20200403203129 68 200 2.0 8.0 0.00 0.01 0.01 36 1014.9
20200403202628 69 188 3.0 9.0 0.00 0.01 0.01 36 1014.9
20200403202126 68 275 3.0 9.0 0.00 0.01 0.01 36 1014.9
20200403201623 69 284 3.0 9.0 0.00 0.01 0.01 36 1014.9
20200403201121 68 279 3.0 9.0 0.00 0.01 0.01 36 1015.0
20200403200619 69 165 3.0 9.0 0.00 0.01 0.01 37 1015.0
20200403200119 68 202 3.0 8.0 0.00 0.01 0.01 35 1015.0
20200403195619 69 219 3.0 8.0 0.00 0.01 0.01 36 1015.0
20200403195119 69 182 2.0 7.0 0.00 0.01 0.01 34 1015.1
20200403194613 69 248 2.0 9.0 0.00 0.01 0.01 36 1015.2
20200403194113 68 286 2.0 9.0 0.00 0.01 0.01 35 1015.2
20200403193615 68 157 3.0 12.0 0.00 0.01 0.01 36 1015.3
20200403193113 67 195 3.0 12.0 0.00 0.01 0.01 36 1015.4
20200403192613 68 183 3.0 10.0 0.00 0.01 0.01 37 1015.5
20200403192113 67 147 3.0 10.0 0.00 0.01 0.01 36 1015.6
20200403191609 67 211 3.0 9.0 0.00 0.01 0.01 36 1015.8
20200403191109 67 182 3.0 9.0 0.00 0.01 0.01 37 1015.8
20200403190609 67 262 2.0 8.0 0.00 0.01 0.01 38 1015.8
20200403190109 67 170 3.0 9.0 0.00 0.01 0.01 36 1015.9
20200403185607 66 263 3.0 7.0 0.00 0.01 0.01 36 1015.9
20200403185109 67 213 3.0 10.0 0.00 0.01 0.01 34 1016.0
20200403184603 66 148 3.0 10.0 0.00 0.01 0.01 36 1016.0
20200403184103 66 168 3.0 9.0 0.00 0.01 0.01 35 1016.1
20200403183603 66 162 4.0 10.0 0.00 0.01 0.01 36 1016.1
20200403183106 65 177 4.0 10.0 0.00 0.01 0.01 36 1016.2
20200403182603 65 161 4.0 9.0 0.00 0.01 0.01 35 1016.2
20200403182103 64 173 4.0 10.0 0.00 0.01 0.01 35 1016.2
20200403181602 64 171 3.0 10.0 0.00 0.01 0.01 37 1016.4
20200403181058 64 206 3.0 8.0 0.00 0.01 0.01 36 1016.5
20200403180559 64 190 4.0 10.0 0.00 0.01 0.01 37 1016.5
20200403180059 64 146 4.0 11.0 0.00 0.01 0.01 36 1016.8
20200403175559 63 200 4.0 11.0 0.00 0.01 0.01 37 1016.8
20200403175057 63 196 4.0 10.0 0.00 0.01 0.01 37 1016.8
20200403174559 62 171 4.0 10.0 0.00 0.01 0.01 38 1016.8
20200403174053 63 157 3.0 9.0 0.00 0.01 0.01 38 1016.9
20200403173553 63 178 3.0 11.0 0.00 0.01 0.01 38 1017.0
20200403173053 62 159 3.0 11.0 0.00 0.01 0.01 38 1017.1
20200403172553 62 152 3.0 8.0 0.00 0.01 0.01 41 1017.2
20200403172051 60 149 4.0 9.0 0.00 0.01 0.01 40 1017.4
20200403171550 60 177 4.0 9.0 0.00 0.01 0.01 41 1017.4
20200403171044 60 142 3.0 8.0 0.00 0.01 0.01 41 1017.5
20200403170545 60 194 2.0 9.0 0.00 0.01 0.01 41 1017.6
20200403170048 59 105 3.0 9.0 0.00 0.01 0.01 42 1017.6
20200403165545 59 189 3.0 9.0 0.00 0.01 0.01 42 1017.6
20200403165044 59 207 3.0 7.0 0.00 0.01 0.01 43 1017.7
20200403164544 59 180 3.0 8.0 0.00 0.01 0.01 43 1017.7
20200403164039 58 160 3.0 8.0 0.00 0.01 0.01 43 1017.8
20200403163539 58 143 2.0 8.0 0.00 0.01 0.01 45 1017.9
20200403163038 58 169 2.0 8.0 0.00 0.01 0.01 45 1017.8
20200403162538 58 181 2.0 6.0 0.00 0.01 0.01 46 1017.7
20200403162039 57 126 2.0 6.0 0.00 0.01 0.01 46 1017.7
20200403161542 57 190 2.0 6.0 0.00 0.01 0.01 46 1017.8
20200403161033 57 176 2.0 6.0 0.00 0.01 0.01 46 1017.9
20200403160533 56 179 3.0 6.0 0.00 0.01 0.01 47 1017.9
20200403160033 56 164 3.0 7.0 0.00 0.01 0.01 47 1017.9
20200403155531 56 178 3.0 7.0 0.00 0.01 0.01 48 1017.9
20200403155029 56 165 3.0 9.0 0.00 0.01 0.01 48 1017.8
20200403154531 55 180 3.0 9.0 0.00 0.01 0.01 47 1017.7
20200403154027 55 153 3.0 6.0 0.00 0.01 0.01 48 1017.8
20200403153524 55 167 2.0 5.0 0.00 0.01 0.01 49 1017.9
20200403153022 55 164 2.0 7.0 0.00 0.01 0.01 49 1017.9
20200403152522 55 173 2.0 7.0 0.00 0.01 0.01 49 1017.9
20200403152022 55 165 2.0 6.0 0.00 0.01 0.01 49 1017.9
20200403151522 54 178 3.0 6.0 0.00 0.01 0.01 49 1017.8
20200403151020 54 147 2.0 6.0 0.00 0.01 0.01 48 1017.8
20200403150518 54 169 1.0 6.0 0.00 0.01 0.01 48 1017.8
20200403150019 54 92 1.0 5.0 0.00 0.01 0.01 50 1017.7
20200403145521 54 123 1.0 5.0 0.00 0.01 0.01 51 1017.6
20200403145018 53 150 1.0 5.0 0.00 0.01 0.01 50 1017.7
20200403144518 53 128 2.0 5.0 0.00 0.01 0.01 51 1017.7
20200403144018 53 134 2.0 5.0 0.00 0.01 0.01 51 1017.8
20200403143512 52 165 1.0 4.0 0.00 0.01 0.01 52 1017.7
20200403143013 52 154 1.0 4.0 0.00 0.01 0.01 52 1017.8
20200403142512 52 161 1.0 4.0 0.00 0.01 0.01 52 1017.8
20200403142011 52 205 1.0 3.0 0.00 0.01 0.01 53 1017.8
20200403141509 51 179 1.0 3.0 0.00 0.01 0.01 53 1017.8
20200403141006 51 166 1.0 3.0 0.00 0.01 0.01 53 1017.8
20200403140502 51 145 1.0 2.0 0.00 0.01 0.01 53 1017.8
20200403140003 51 147 1.0 4.0 0.00 0.01 0.01 53 1017.7
20200403135503 51 163 1.0 5.0 0.00 0.01 0.01 53 1017.7
20200403135003 51 140 1.0 5.0 0.00 0.01 0.01 52 1017.7
20200403134503 51 167 1.0 5.0 0.00 0.01 0.01 53 1017.8
20200403134003 50 164 1.0 5.0 0.00 0.01 0.01 53 1017.8
20200403133501 50 170 1.0 3.0 0.00 0.01 0.01 54 1017.9
20200403132958 50 133 1.0 4.0 0.00 0.01 0.01 55 1017.9
20200403132458 49 163 1.0 4.0 0.00 0.01 0.01 55 1017.9
20200403131956 49 141 1.0 3.0 0.00 0.01 0.01 56 1018.0
20200403131457 49 123 1.0 4.0 0.00 0.01 0.01 56 1017.9
20200403130957 49 92 1.0 4.0 0.00 0.01 0.01 56 1018.0
20200403130452 49 117 0.0 3.0 0.00 0.01 0.01 56 1018.1
20200403125953 49 114 1.0 3.0 0.00 0.01 0.01 56 1018.0
20200403125455 49 103 1.0 3.0 0.00 0.01 0.01 57 1017.9
20200403124953 49 101 0.0 3.0 0.00 0.01 0.01 57 1017.9
20200403124452 48 102 0.0 2.0 0.00 0.01 0.01 57 1017.9
20200403123952 48 99 0.0 3.0 0.00 0.01 0.01 57 1017.8
20200403123448 48 100 1.0 4.0 0.00 0.01 0.01 57 1017.9
20200403122948 48 133 1.0 4.0 0.00 0.01 0.01 57 1017.9
20200403122448 48 119 1.0 3.0 0.00 0.01 0.01 57 1017.8
20200403121949 48 98 0.0 3.0 0.00 0.01 0.01 57 1017.8
20200403121449 47 99 0.0 3.0 0.00 0.01 0.01 58 1017.8
20200403120949 47 95 0.0 2.0 0.00 0.01 0.01 58 1017.9
20200403120444 47 95 0.0 2.0 0.00 0.01 0.01 58 1017.9
20200403115944 47 95 0.0 2.0 0.00 0.01 0.01 58 1017.8
20200403115444 47 95 0.0 2.0 0.00 0.01 0.01 58 1017.8
20200403114944 47 95 0.0 2.0 0.00 0.01 0.01 58 1017.9
20200403114445 47 94 0.0 2.0 0.00 0.01 0.01 58 1017.8
20200403113946 47 94 0.0 3.0 0.00 0.01 0.01 59 1017.8
20200403113441 47 94 1.0 3.0 0.00 0.01 0.01 59 1017.7
20200403112941 47 94 1.0 3.0 0.00 0.01 0.01 59 1017.6
20200403112440 47 95 1.0 2.0 0.00 0.01 0.01 59 1017.6
20200403111941 47 95 1.0 2.0 0.00 0.01 0.01 59 1017.4
20200403111440 47 94 1.0 2.0 0.00 0.01 0.01 58 1017.4
20200403110940 47 98 1.0 2.0 0.00 0.01 0.01 58 1017.5
20200403110440 47 98 1.0 3.0 0.00 0.01 0.01 58 1017.5
20200403105939 47 96 1.0 3.0 0.00 0.01 0.01 58 1017.6
20200403105437 47 95 0.0 2.0 0.00 0.01 0.01 58 1017.6
20200403104936 47 95 0.0 2.0 0.00 0.01 0.01 58 1017.7
20200403104438 47 95 0.0 2.0 0.00 0.01 0.01 58 1017.8
20200403103931 47 95 0.0 2.0 0.00 0.01 0.01 58 1017.8
20200403102931 47 95 0.0 3.0 0.00 0.01 0.01 57 1017.8
20200403102430 47 95 1.0 3.0 0.00 0.01 0.01 57 1017.8
20200403101930 47 95 0.0 3.0 0.00 0.01 0.01 57 1017.8
20200403101428 47 118 0.0 3.0 0.00 0.01 0.01 56 1017.8
20200403100927 47 118 0.0 3.0 0.00 0.01 0.01 56 1017.9
20200403100424 47 109 0.0 2.0 0.00 0.01 0.01 56 1017.8
20200403095925 47 101 0.0 2.0 0.00 0.01 0.01 56 1017.9
20200403095424 47 101 1.0 4.0 0.00 0.01 0.01 56 1017.9
20200403094923 47 131 1.0 4.0 0.00 0.01 0.01 56 1018.0
20200403094422 47 115 0.0 3.0 0.00 0.01 0.01 57 1018.0
20200403093921 47 227 0.0 2.0 0.00 0.01 0.01 58 1018.1
20200403093420 47 227 0.0 2.0 0.00 0.01 0.01 57 1018.1
20200403092920 47 227 0.0 2.0 0.00 0.01 0.01 56 1018.2
20200403092418 47 227 0.0 2.0 0.00 0.01 0.01 56 1018.1
20200403091916 47 227 0.0 2.0 0.00 0.01 0.01 56 1018.2
20200403091414 47 231 1.0 3.0 0.00 0.01 0.01 55 1018.3
20200403090910 47 232 1.0 3.0 0.00 0.01 0.01 55 1018.4
20200403090410 48 121 1.0 3.0 0.00 0.01 0.01 54 1018.0
20200403085908 48 242 1.0 7.0 0.01 0.01 0.01 53 1018.2